Flag for Sweden Weather past 2 weeks in Malmö, Sweden

Now
52 °F

Clear.


Feels Like: 47 °F
Forecast: 51 / 56 °F
Wind: 13 mph from West

Location: Malmo / Sturup

Current Time: Oct 20, 2014 at 9:02:14 PM

Latest Report: Oct 20, 2014 at 8:20 PM


Visibility: 10 mi

Pressure: 29.71 "Hg

Humidity: 82%

Dew point: 46 °F

Location of MalmöLocation

Historic Weather in Malmö — Graph

°F

Malmö temperature yesterday

Maximum temperature yesterday: 59 °F (at 5:50 AM)
Minimum temperature yesterday: 57 °F (at 12:20 AM)
Average temperature yesterday: 58 °F

Past Weeks' High & Low Weather Summary

 TemperatureHumidityPressure
High63 °F (Oct 9, 1:20 PM)100% (Oct 7, 5:20 PM)30.21 "Hg (Oct 7, 5:20 PM)
Low41 °F (Oct 13, 12:50 AM)67% (Oct 6, 9:20 AM)29.59 "Hg (Oct 7, 5:50 PM)
Average54 °F91%29.85 "Hg
* Reported Oct 5 7:20 PM — Oct 20 7:50 PM, Malmö, Weather by CustomWeather, © 2014

Note: Actual official high and low records may vary slightly from our data, if they occured in-between our weather recording intervals... More about our weather records

Advertising

Malmö weather history for previous 24 hours

 ConditionsComfort  
Time TempWeatherWind HumidityBarometerVisibility
7:50 PM
Oct 20
54 °FPassing clouds.12 mph77%29.71 "HgN/A
7:20 PM54 °FPartly cloudy.15 mph77%29.71 "HgN/A
6:50 PM55 °FBroken clouds.13 mph67%29.71 "HgN/A
6:20 PM55 °FBroken clouds.16 mph72%29.71 "HgN/A
5:50 PM55 °FBroken clouds.16 mph72%29.68 "HgN/A
5:20 PM55 °FFog.16 mph72%29.68 "Hg6 mi
4:50 PM55 °FMostly cloudy.18 mph77%29.68 "HgN/A
4:20 PM55 °FBroken clouds.16 mph72%29.68 "HgN/A
3:50 PM55 °FBroken clouds.17 mph72%29.68 "HgN/A
3:20 PM55 °FBroken clouds.20 mph72%29.68 "HgN/A
2:50 PM57 °FScattered clouds.21 mph72%29.68 "HgN/A
2:20 PM57 °FPartly sunny.20 mph72%29.68 "HgN/A
1:50 PM59 °FBroken clouds.20 mph68%29.65 "HgN/A
1:20 PM57 °FScattered clouds.18 mph72%29.65 "HgN/A
12:50 PM57 °FPartly sunny.21 mph72%29.68 "HgN/A
12:20 PM57 °FBroken clouds.18 mph77%29.68 "HgN/A
11:50 AM57 °FPartly sunny.20 mph77%29.65 "HgN/A
11:20 AM55 °FPartly sunny.20 mph82%29.65 "HgN/A
10:50 AM55 °FMostly cloudy.16 mph88%29.65 "HgN/A
10:20 AM55 °FPartly sunny.20 mph88%29.65 "HgN/A
9:50 AM55 °FMostly cloudy.20 mph88%29.62 "HgN/A
9:20 AM55 °FBroken clouds.16 mph88%29.62 "HgN/A
8:50 AM55 °FScattered clouds.15 mph88%29.62 "HgN/A
8:20 AM55 °FOvercast.18 mph94%29.62 "HgN/A
7:50 AM55 °FPartly cloudy.15 mph94%29.59 "HgN/A
7:20 AM55 °FPassing clouds.16 mph94%29.59 "HgN/A
6:50 AM55 °FOvercast.14 mph94%29.62 "HgN/A
5:20 AM57 °FPartly cloudy.20 mph88%29.62 "HgN/A
4:50 AM57 °FOvercast.20 mph88%29.62 "HgN/A
4:20 AM57 °FPartly cloudy.15 mph88%29.62 "HgN/A
3:50 AM57 °FPassing clouds.16 mph88%29.62 "HgN/A
3:20 AM57 °FPartly cloudy.18 mph88%29.65 "HgN/A
2:50 AM57 °FOvercast.15 mph94%29.65 "HgN/A
2:20 AM57 °FPassing clouds.17 mph88%29.65 "HgN/A
1:50 AM55 °FPassing clouds.16 mph94%29.65 "HgN/A
1:20 AM57 °FPassing clouds.16 mph88%29.65 "HgN/A
12:50 AM55 °FPartly cloudy.15 mph94%29.68 "HgN/A
12:20 AM55 °FPassing clouds.14 mph94%29.68 "HgN/A
11:50 PM
Oct 19
57 °FPassing clouds.13 mph88%29.68 "HgN/A
11:20 PM57 °FPassing clouds.10 mph88%29.68 "HgN/A
10:50 PM57 °FPassing clouds.13 mph88%29.68 "HgN/A
10:20 PM59 °FPartly cloudy.12 mph88%29.68 "HgN/A
9:50 PM59 °FPassing clouds.12 mph94%29.68 "HgN/A
9:20 PM59 °FPartly cloudy.14 mph94%29.68 "HgN/A
Weather by CustomWeather, © 2014

See weather overviewHow to use our weather pages